This demonstration page uses our WeatherBlox Daily Observations layout. Learn more.

Left ArrowRight Arrow

Hourly Observations for October 21, 2016

Temp ( °F °C ) Dew Point ( °F °C ) Humidity (%) Winds ( mph kmh ) Pressure ( in mb ) Visibility ( mi km ) Precip ( " mm )
12:53 am 00:53 Clear 54 12.2 35 1.7 49 49 ESE 7 11 30.27 1025 10 16 0.00 0.00
1:53 am 01:53 Clear 51 10.6 35 1.7 54 54 E 6 9 30.26 1025 10 16 0.00 0.00
2:53 am 02:53 Clear 50 10 35 1.7 57 57 E 5 7 30.26 1025 10 16 0.00 0.00
3:53 am 03:53 Clear 49 9.4 36 2.2 61 61 ESE 5 7 30.26 1025 10 16 0.00 0.00
4:53 am 04:53 Clear 46 7.8 34 1.1 63 63 Calm 30.25 1024 10 16 0.00 0.00
5:53 am 05:53 Clear 43 6.1 34 1.1 71 71 Calm 30.25 1024 10 16 0.00 0.00
6:53 am 06:53 Clear 41 5 34 1.1 76 76 N 7 11 30.26 1025 10 16 0.00 0.00
7:53 am 07:53 Clear 40 4.4 33 0.6 77 77 N 6 9 30.27 1025 10 16 0.00 0.00
8:53 am 08:53 Sunny 46 7.8 35 1.7 66 66 Calm 30.27 1025 10 16 0.00 0.00
9:53 am 09:53 Sunny 56 13.3 37 2.8 49 49 VRB 7 11 30.26 1025 10 16 0.00 0.00
10:53 am 10:53 Sunny 62 16.7 37 2.8 40 40 SSE 12 19 30.24 1024 10 16 0.00 0.00
11:53 am 11:53 Sunny 67 19.4 37 2.8 33 33 SSE 14 22 30.21 1023 10 16 0.00 0.00
12:53 pm 12:53 Sunny 69 20.6 35 1.7 29 29 SSE 13 20 30.19 1022 10 16 0.00 0.00
1:53 pm 13:53 Sunny 72 22.2 37 2.8 28 28 SSE 13 20 30.14 1021 10 16 0.00 0.00
2:53 pm 14:53 Sunny 74 23.3 38 3.3 27 27 SSE 12 19 30.10 1019 10 16 0.00 0.00
3:53 pm 15:53 Sunny 76 24.4 39 3.9 26 26 SSE 10 17 30.07 1018 10 16 0.00 0.00
4:53 pm 16:53 Sunny 77 25 40 4.4 26 26 SE 15 24 30.05 1018 10 16 0.00 0.00
5:53 pm 17:53 Sunny 76 24.4 40 4.4 27 27 SSE 12 19 30.05 1018 10 16 0.00 0.00
6:53 pm 18:53 Sunny 73 22.8 41 5 32 32 SE 12 19 30.06 1018 10 16 0.00 0.00
7:53 pm 19:53 Clear 67 19.4 41 5 39 39 SE 9 15 30.07 1018 10 16 0.00 0.00
8:53 pm 20:53 Clear 64 17.8 41 5 43 43 SE 9 15 30.07 1018 10 16 0.00 0.00
9:53 pm 21:53 Clear 62 16.7 39 3.9 43 43 SE 10 17 30.06 1018 10 16 0.00 0.00
10:53 pm 22:53 Clear 61 16.1 38 3.3 43 43 SE 12 19 30.05 1018 10 16 0.00 0.00
11:53 pm 23:53 Clear 59 15 38 3.3 46 46 SE 12 19 30.04 1017 10 16 0.00 0.00

Powered by AerisWeather